Wind_Speed
14 12 10 8 10 12 12 12 13 12 11 10 9 10 9 9 9 8 9 11 15 15 14 14 16 15 14 14 20 27 28 28 31 31 31 35 37 38 39 39 41 43 45 47 50 53 55 56 56 56 56 56 55 55 53 50 48 46 46 47 45 43 41 38 37 34 24 20 21 18 14 13 11 9 9 9 11 12 13 15 15 14 14 15 15 12 10
12 12 11 9 9 10 12 15 15 13 12 12 12 12 10 10 11 10 11 14 14 14 15 18 19 20 20 22 25 27 28 29 29 27 28 31 34 36 35 35 37 41 44 47 49 52 54 55 56 57 56 56 56 56 55 52 49 47 47 47 46 44 44 42 39 34 25 23 24 21 18 14 11 10 9 10 11 12 13 14 13 13 13 14 12 10 10
9 10 8 7 8 8 11 14 13 10 10 11 12 12 10 9 9 7 12 14 11 10 11 13 17 20 20 19 19 22 26 29 27 25 27 29 31 33 33 33 34 37 42 45 48 51 53 55 57 57 56 56 56 56 56 54 51 48 48 49 47 46 45 42 39 34 25 24 27 24 19 15 11 11 10 11 12 12 13 13 12 12 11 11 10 9 9
6 6 5 4 4 3 5 10 8 5 4 5 6 5 5 6 6 5 9 10 10 9 5 5 9 14 16 15 16 21 25 28 27 25 27 28 27 27 28 30 32 35 40 43 45 49 52 54 56 56 56 55 55 56 57 55 52 49 49 49 46 46 44 40 38 32 22 24 30 26 19 16 13 11 11 13 14 14 14 14 12 11 10 10 10 10 11
5 5 7 7 6 5 3 7 4 5 5 5 4 3 2 3 6 6 6 8 10 7 7 8 8 10 13 16 21 26 27 27 27 24 24 25 23 20 19 20 23 27 32 35 40 46 49 52 54 54 55 55 55 56 56 55 53 51 50 49 48 48 44 39 38 31 20 24 31 25 19 17 14 12 14 15 15 15 15 13 12 12 11 11 12 13 14
5 5 6 7 6 4 3 7 1 6 9 9 8 5 3 0 4 6 4 6 6 7 10 12 12 12 16 21 26 29 27 25 23 22 22 21 19 17 14 12 12 14 17 22 29 37 45 49 49 49 52 53 53 53 54 55 54 52 51 50 49 49 44 40 38 28 22 28 31 23 18 19 16 15 16 16 16 16 15 13 13 13 13 14 14 15 17
3 2 6 5 2 4 4 6 2 6 10 11 10 7 6 6 7 8 7 4 4 7 9 12 14 15 18 21 23 23 22 21 20 19 17 16 14 13 11 8 7 8 9 11 16 25 34 40 44 47 50 51 52 53 53 53 51 50 49 47 46 46 43 41 36 24 20 27 29 23 21 22 20 18 17 17 17 17 16 14 14 14 14 15 15 17 20
3 3 5 5 7 4 3 2 1 4 7 8 9 9 9 10 6 7 9 8 7 8 11 16 21 21 19 18 18 18 17 15 14 13 13 14 12 9 7 5 5 7 7 7 9 13 20 28 36 42 46 49 51 50 47 43 40 41 43 41 42 42 41 41 35 23 21 26 28 28 27 24 23 21 18 18 18 17 17 16 15 15 15 16 17 20 23
4 5 3 2 2 3 5 2 2 2 2 5 7 5 4 8 8 5 6 9 10 11 13 18 24 24 18 12 9 12 12 9 7 8 11 14 11 6 5 4 4 7 5 3 3 6 12 19 27 33 39 44 45 41 39 39 39 41 43 44 44 44 45 42 31 20 20 25 29 33 32 27 24 22 20 18 17 17 19 18 17 18 19 19 19 20 22
2 5 4 2 2 2 3 5 6 5 0 8 10 6 3 6 10 9 2 9 11 11 13 18 21 19 12 4 3 7 9 7 8 10 12 13 8 2 4 6 4 5 5 2 1 4 9 16 22 29 36 40 38 37 41 44 45 44 44 45 44 46 47 39 25 19 22 25 30 35 34 28 25 23 22 20 19 19 20 21 22 25 25 22 20 21 21
3 5 4 1 3 4 4 7 7 9 4 6 9 8 3 6 13 13 1 8 10 9 13 17 17 12 6 4 3 3 7 9 10 13 13 9 4 3 5 6 7 9 8 4 5 7 9 12 18 25 35 39 37 37 41 43 43 42 41 41 42 46 48 38 25 24 26 25 28 35 35 29 25 24 23 21 20 21 23 25 26 28 26 21 20 22 23
4 4 3 1 2 1 3 7 8 10 4 4 7 5 3 8 14 10 3 7 8 10 12 12 10 6 4 6 2 4 7 11 9 9 8 3 3 6 7 7 7 7 7 7 10 12 12 11 13 20 30 36 36 37 38 40 42 42 40 40 42 46 46 37 28 27 27 24 27 31 31 28 26 25 23 21 22 23 25 26 27 28 24 18 16 18 20
4 3 1 1 1 1 4 7 9 12 6 7 7 3 6 8 12 12 16 15 14 15 17 14 10 9 7 8 13 14 10 9 6 5 4 1 1 2 2 5 7 9 11 12 13 13 12 10 10 13 22 30 35 39 40 42 46 44 37 36 41 44 39 31 27 28 25 22 24 26 25 25 25 25 24 24 25 25 26 26 25 22 18 15 16 16 15
2 2 1 1 1 3 8 8 11 14 7 4 3 4 2 6 10 18 25 23 21 23 24 21 18 17 17 16 17 17 13 10 8 6 4 4 4 5 8 10 13 16 17 16 16 16 14 11 10 11 16 24 32 38 41 44 46 42 33 30 36 40 36 29 29 31 26 21 20 21 21 23 26 28 28 27 26 24 22 21 18 15 13 18 18 13 12
3 3 3 1 2 8 15 11 8 11 5 5 5 5 7 13 16 20 24 24 24 23 22 21 21 20 19 19 18 16 13 11 11 10 9 9 9 10 10 10 14 17 17 17 18 18 15 12 12 12 15 21 28 35 39 41 41 38 29 26 30 34 35 32 32 30 25 20 18 19 22 25 29 31 29 26 24 22 20 19 18 17 18 18 13 11 11
3 3 3 1 5 10 12 7 6 6 8 12 13 14 16 20 23 23 24 26 26 25 23 23 23 21 20 19 18 16 14 13 13 13 13 14 14 14 14 12 13 15 17 18 18 16 14 12 13 13 16 21 27 31 32 33 34 32 27 26 28 29 29 30 31 28 25 22 20 20 23 26 30 31 29 25 22 22 21 22 22 21 17 13 12 13 15
4 4 1 1 5 10 17 21 18 16 20 23 24 25 25 26 27 26 27 27 26 24 24 25 25 24 23 21 18 17 15 14 15 16 16 17 15 14 15 14 13 16 19 19 17 16 13 11 11 13 17 22 25 26 26 25 26 25 23 25 27 25 23 24 27 26 22 17 13 12 16 20 24 25 24 23 22 21 21 22 19 15 13 14 15 16 17
5 5 3 4 8 13 18 22 22 23 24 22 23 26 27 26 25 25 26 27 25 22 21 23 23 22 21 20 19 18 17 17 17 17 17 17 15 13 13 13 14 15 17 16 15 13 11 11 13 17 21 22 19 18 20 21 21 21 23 26 25 22 21 20 17 13 8 3 4 7 11 14 17 18 19 19 18 17 16 16 14 13 15 16 17 17 17
4 3 2 3 7 12 15 19 21 23 24 22 21 21 20 20 20 19 19 21 24 24 23 23 23 21 20 20 19 18 17 17 16 15 15 16 15 14 13 11 12 12 12 13 13 12 12 14 16 19 20 20 16 13 15 18 17 14 17 20 18 15 15 14 9 3 3 6 8 9 11 15 17 19 19 18 15 13 13 14 14 14 15 15 15 16 18
3 2 3 2 7 14 17 19 19 19 21 23 22 19 17 16 16 15 14 15 20 25 25 24 24 23 22 21 20 19 17 16 15 14 14 15 15 13 12 10 11 11 11 13 15 16 16 16 18 17 14 14 15 14 12 12 13 15 16 13 12 12 11 8 4 6 9 11 12 12 16 21 22 20 18 15 13 11 12 13 13 13 13 14 15 17 18
3 2 2 2 6 12 14 16 16 15 16 18 20 19 18 17 16 15 13 12 14 20 23 23 23 23 22 21 21 23 21 17 15 14 13 13 13 12 11 10 10 10 11 15 19 20 20 20 20 19 19 22 24 22 20 19 17 14 14 16 15 14 12 11 10 11 11 10 13 17 20 22 21 18 16 14 12 11 11 12 12 12 13 15 16 17 18
3 2 4 4 4 4 6 9 12 12 11 13 17 19 20 21 19 15 14 12 12 14 16 19 20 22 22 20 19 21 20 18 16 13 11 11 11 11 11 9 9 11 13 17 21 22 22 22 24 26 27 27 25 24 22 19 14 9 10 13 14 13 13 14 13 11 11 12 17 20 21 19 18 16 15 13 13 12 12 12 13 13 14 15 16 17 19
2 3 6 9 9 6 5 10 13 13 13 14 16 17 18 19 18 16 16 16 15 13 12 14 15 16 16 15 15 16 15 15 15 12 11 10 10 9 10 9 10 13 18 22 24 25 26 27 30 31 28 23 19 16 15 13 9 7 6 8 5 3 5 5 4 9 13 17 20 21 19 17 16 15 15 15 14 14 13 14 14 14 14 15 16 18 20
3 3 5 10 12 11 12 16 15 14 14 14 14 15 16 17 16 16 16 16 15 12 11 12 12 13 14 14 14 14 13 15 16 14 11 11 10 10 10 12 14 18 23 26 26 26 27 27 27 26 21 14 8 8 12 14 12 10 13 12 10 13 12 9 12 17 19 20 20 20 19 18 17 17 17 17 16 15 15 15 16 15 15 16 17 19 20
6 1 5 14 17 14 13 14 14 14 14 13 14 15 16 16 16 14 14 15 15 13 13 13 13 15 18 18 16 13 11 13 17 16 14 13 12 12 12 14 18 23 27 28 25 23 22 19 17 16 15 14 14 14 15 15 15 15 13 9 10 13 13 13 16 20 21 20 21 21 21 22 21 21 20 19 17 17 16 15 15 15 16 17 18 19 18
14 9 10 18 20 15 13 12 13 15 14 12 14 13 13 14 15 14 15 16 16 16 17 17 16 17 18 20 19 15 11 11 15 17 16 15 15 15 14 16 21 27 29 26 22 18 15 13 13 13 13 12 11 12 12 10 9 8 8 8 9 11 14 16 18 20 21 21 22 22 22 22 22 20 19 17 17 17 16 15 14 15 16 17 17 17 15
17 13 11 14 16 17 18 15 14 15 14 13 14 12 11 11 12 13 15 16 15 16 17 17 17 17 17 18 19 17 13 11 14 17 17 17 17 17 17 19 24 27 27 23 18 14 13 13 13 11 9 7 7 7 7 6 7 10 11 9 9 12 16 17 18 18 19 20 21 21 20 19 18 16 15 15 16 16 14 13 13 14 15 15 15 14 12
24 21 19 17 15 17 18 16 14 15 16 16 15 13 12 12 12 14 16 17 17 17 17 17 18 18 19 19 19 19 16 13 13 17 18 18 18 18 20 23 25 25 23 20 16 15 15 15 14 11 7 5 6 7 8 9 10 10 10 10 10 13 15 16 15 15 16 18 19 18 17 16 15 15 15 14 14 13 12 12 13 13 13 13 13 13 12
23 23 22 21 18 16 15 15 16 18 18 17 16 15 14 14 14 15 17 18 19 18 18 18 18 18 19 21 20 20 20 18 15 15 18 19 19 20 22 23 22 19 16 16 17 18 18 17 15 10 10 11 10 9 8 9 10 10 10 10 10 12 14 15 15 14 14 15 15 15 15 15 15 15 15 14 13 13 13 13 13 12 11 12 13 12 11
19 18 17 17 17 16 16 17 19 19 18 17 17 16 16 16 16 16 17 18 19 19 20 20 20 18 20 22 22 21 21 21 19 15 15 17 17 18 18 17 14 14 16 18 20 19 17 16 14 14 13 10 7 6 7 8 10 10 9 9 10 12 14 15 15 15 14 14 14 14 15 16 15 15 15 14 14 14 14 13 12 11 11 12 12 12 11
14 13 13 14 15 16 17 18 17 17 17 17 17 17 17 17 18 18 18 19 20 21 21 22 22 21 22 23 23 23 21 20 19 16 13 15 17 18 18 18 18 21 22 20 17 16 17 17 16 12 10 8 6 5 5 6 8 9 10 10 10 11 13 14 14 14 14 15 14 14 15 15 15 14 15 15 14 14 13 12 12 11 12 13 13 13 12
14 14 14 16 17 17 17 17 18 18 18 18 18 18 18 18 18 18 18 20 21 21 21 23 24 24 24 24 24 24 22 20 19 17 14 14 18 20 21 20 21 22 20 18 18 18 18 16 12 9 9 7 5 3 3 4 6 8 9 10 10 10 11 12 12 13 14 15 15 14 13 13 13 14 14 14 13 12 12 12 11 10 12 14 14 13 11
20 19 18 20 20 19 19 19 18 18 17 17 18 18 17 17 16 16 17 17 18 18 19 20 22 23 24 25 24 23 22 20 18 16 15 15 16 17 18 20 23 23 24 25 24 19 14 11 10 10 9 7 5 4 5 6 7 7 8 9 9 10 10 11 12 14 15 15 14 12 12 12 12 12 13 13 13 12 12 11 10 11 13 15 13 12 11
18 15 14 15 15 16 17 17 17 17 17 17 17 18 18 18 18 17 16 16 16 16 17 19 20 22 23 25 25 23 21 20 19 17 15 15 15 16 18 21 24 26 26 25 21 16 12 10 9 8 9 8 7 7 9 10 10 9 9 9 9 8 8 9 11 13 14 13 12 11 12 12 12 12 12 12 13 12 11 11 12 13 15 15 14 13 13
13 11 11 12 12 12 13 14 16 17 17 17 18 19 18 18 18 18 18 17 16 15 15 17 19 21 22 24 26 23 20 18 18 16 16 16 16 19 23 25 27 27 23 19 16 11 4 2 6 10 12 12 12 13 14 13 12 11 10 9 9 8 8 9 11 11 10 10 11 12 12 13 13 12 12 12 13 12 12 13 15 16 16 16 15 14 14
15 14 14 14 14 13 13 13 15 15 16 16 18 18 18 17 17 18 18 17 16 15 16 17 18 20 21 23 25 24 20 16 16 16 18 19 18 20 22 22 23 22 19 15 10 4 9 10 13 17 16 14 13 14 14 12 11 11 10 10 10 10 10 11 12 11 10 11 13 14 14 14 13 13 12 12 13 13 13 13 15 16 17 17 15 14 13
14 14 14 14 13 13 13 13 14 14 15 15 16 16 17 17 17 17 18 18 19 19 19 20 21 22 22 22 24 23 19 15 15 17 19 19 18 17 14 12 10 8 6 5 7 11 11 12 15 14 13 12 12 11 10 9 9 9 9 10 11 11 11 11 10 9 10 12 13 13 13 12 11 10 10 10 12 14 14 15 16 17 18 18 17 14 11
15 14 15 14 14 14 14 13 13 14 14 15 16 17 17 17 17 18 19 19 20 21 21 21 22 21 20 20 21 19 15 13 15 18 19 21 20 16 11 6 6 11 15 15 13 13 14 14 12 11 11 11 10 9 9 9 9 10 11 11 10 9 9 9 7 7 8 9 10 10 9 9 8 7 8 10 13 15 15 15 16 17 18 18 17 15 13
16 16 16 16 15 15 15 15 15 15 15 15 15 17 16 15 16 16 16 17 18 19 18 18 18 17 16 16 15 12 9 12 17 19 19 18 17 17 17 14 12 12 12 12 13 14 14 12 12 12 11 10 9 9 9 11 12 12 11 10 7 4 3 3 3 3 5 6 7 8 8 8 7 6 7 9 11 12 12 13 14 15 15 16 15 15 14
18 17 17 16 16 16 16 17 17 16 14 12 13 14 15 15 14 13 13 13 14 15 15 14 13 13 12 11 9 7 6 11 16 17 14 13 15 17 15 11 9 11 14 14 12 11 11 11 11 11 10 10 10 11 11 11 10 8 8 7 6 4 4 3 1 3 5 6 8 8 8 8 6 7 7 9 10 10 10 10 13 14 14 14 14 15 15
20 18 17 16 16 16 16 16 16 15 12 11 11 11 13 13 12 11 12 13 14 14 14 13 11 10 8 8 8 8 8 10 13 13 11 11 13 14 12 11 12 13 13 11 10 10 11 11 10 9 10 10 11 11 10 8 6 6 6 5 6 6 4 4 3 4 5 7 8 10 10 9 8 7 8 9 10 10 10 10 12 13 14 14 15 16 17
20 19 17 17 17 16 15 15 15 14 14 13 12 11 12 12 11 10 11 12 12 11 11 11 10 8 5 5 8 9 8 8 9 8 5 5 10 11 7 7 11 13 11 9 9 10 10 8 8 9 9 9 9 8 7 5 6 6 5 5 6 7 6 5 6 6 7 8 9 10 11 12 11 11 10 9 9 10 11 12 13 14 15 15 15 15 16
20 18 17 17 17 16 15 15 14 13 13 13 12 10 10 11 11 10 10 9 8 9 9 10 9 7 3 2 5 7 7 7 8 8 7 7 9 8 5 6 11 11 9 8 10 10 8 8 8 8 8 7 6 6 6 6 6 6 6 6 8 9 10 11 10 9 8 9 9 10 12 13 14 14 14 12 10 10 11 13 13 14 14 15 15 15 14
19 18 17 17 18 18 17 16 15 13 12 12 11 10 9 9 9 9 9 7 7 7 8 8 7 5 3 1 3 5 6 7 7 6 6 6 8 6 4 5 8 8 8 9 9 8 7 6 7 7 7 7 7 6 6 6 6 6 7 8 8 9 11 12 12 11 10 9 9 9 11 13 14 15 16 15 13 12 12 14 15 15 14 15 15 15 14
18 18 16 17 18 18 17 16 15 14 13 12 10 9 8 7 6 7 7 6 5 6 6 6 7 8 6 3 0 3 5 4 3 3 3 4 5 5 5 4 5 6 6 6 7 6 6 7 7 8 8 8 8 7 6 5 5 6 8 8 8 7 7 9 11 12 12 12 11 11 12 12 12 13 14 14 14 14 13 13 14 15 16 16 17 16 15
17 17 16 15 15 16 15 14 14 13 13 12 10 9 8 7 6 6 6 5 5 6 5 4 5 7 8 6 3 1 3 3 3 3 3 4 5 4 2 2 3 5 5 6 6 7 7 8 9 9 9 8 8 8 7 6 6 7 9 8 7 6 6 7 8 9 10 11 13 14 15 14 11 11 11 14 15 14 13 13 13 14 15 18 19 17 15
16 15 15 15 14 14 13 13 12 12 13 14 13 12 10 9 8 7 7 6 6 6 5 4 5 6 6 5 4 1 2 3 4 4 5 5 5 4 2 2 4 6 6 6 7 7 8 9 10 10 10 10 10 10 10 10 10 10 10 9 8 7 7 7 8 8 10 12 14 16 17 15 12 10 11 14 16 15 14 14 14 13 13 16 18 17 15
14 14 14 13 12 13 13 13 13 14 15 15 15 14 13 11 10 9 8 7 7 6 5 5 5 5 5 5 4 3 3 4 5 6 6 6 6 6 5 5 6 7 7 7 8 8 8 9 10 10 11 11 12 12 12 12 11 11 10 9 9 8 8 9 10 11 11 12 13 14 14 12 11 10 10 13 15 15 14 13 12 10 11 15 16 16 16
11 12 12 11 10 11 12 12 12 13 14 15 15 13 12 12 12 11 9 8 8 7 6 6 5 5 4 4 4 3 3 4 6 7 7 6 6 7 7 7 8 8 8 9 9 8 8 8 8 8 8 9 10 11 11 10 10 10 10 10 11 11 9 9 10 11 11 11 11 12 12 11 11 10 9 11 13 14 14 12 10 9 12 15 16 15 16
11 11 11 10 9 9 10 11 11 11 12 13 14 13 11 11 11 11 11 10 9 9 8 7 7 5 4 4 4 4 3 4 5 7 7 7 7 7 7 8 9 10 10 10 10 10 9 9 9 8 7 7 8 9 10 10 10 9 9 11 13 14 12 10 10 10 10 11 11 11 11 11 12 12 11 11 12 15 16 15 13 12 13 14 15 15 15
10 10 10 10 9 7 6 8 9 10 11 12 12 11 10 9 9 10 11 12 11 10 9 8 7 6 5 5 4 4 3 3 5 6 7 7 7 8 9 10 10 11 11 12 12 12 12 12 11 11 10 9 9 10 11 12 12 11 11 12 14 16 15 13 11 11 11 11 12 11 10 9 11 12 11 10 10 12 14 14 13 13 13 14 14 15 14
7 6 6 8 7 5 3 4 6 8 11 12 12 10 8 8 8 8 9 12 13 11 10 9 8 7 6 6 5 4 3 3 4 5 6 7 7 8 10 11 12 12 12 12 13 14 14 15 15 15 14 14 13 12 13 14 14 13 13 14 14 15 15 14 15 16 15 13 12 11 10 10 10 11 10 10 11 12 13 13 13 13 14 13 13 12 12
Wind_Direction
220 215 211 202 186 193 201 204 209 203 189 181 184 202 196 154 159 213 222 190 180 189 194 193 196 192 181 176 174 171 170 175 182 182 182 187 193 198 201 203 205 206 207 206 205 206 206 206 207 208 210 213 215 217 218 218 219 222 223 220 217 215 211 211 210 206 208 219 216 206 201 201 205 210 205 205 218 228 236 244 248 250 254 258 260 266 277
230 223 213 194 180 198 208 209 211 204 194 186 187 206 200 176 197 211 183 185 198 194 190 195 195 186 175 171 170 169 168 172 178 178 178 185 195 200 202 205 207 208 209 208 208 206 205 205 206 208 210 212 215 218 218 219 221 225 224 220 218 215 211 211 208 204 208 217 211 204 206 208 209 212 206 204 215 226 233 240 245 248 250 253 255 266 281
226 220 215 200 184 194 209 213 213 209 210 206 200 209 201 184 211 210 167 178 210 220 200 189 181 172 163 161 165 166 168 171 173 176 179 184 191 198 202 205 206 208 210 210 210 208 206 206 207 209 212 215 218 219 219 220 223 227 226 221 217 214 211 210 208 203 205 211 209 205 206 209 211 213 211 210 214 221 230 237 243 245 247 252 254 262 276
211 199 159 139 151 164 207 208 195 183 206 210 202 206 179 169 188 168 154 178 212 226 201 145 152 161 156 157 161 162 165 167 168 176 184 185 187 193 199 204 207 211 212 212 212 211 210 209 209 211 214 216 217 218 220 223 225 226 224 218 213 210 209 210 208 205 203 205 207 208 206 207 211 214 218 221 222 226 234 240 245 244 245 254 259 260 264
210 199 129 99 68 44 283 233 186 128 117 104 84 52 66 163 160 137 159 207 217 201 154 136 155 170 162 161 163 163 165 163 162 169 177 180 181 181 184 194 205 213 219 221 222 219 216 213 214 216 216 217 219 221 223 223 224 224 220 215 212 211 210 207 203 207 216 211 208 210 211 210 212 215 221 227 229 231 237 242 247 246 248 258 263 263 261
207 210 132 93 67 86 239 264 281 101 109 102 83 46 353 215 133 129 166 211 200 171 162 166 174 175 167 165 166 166 165 161 158 160 162 163 167 167 163 170 186 204 219 228 233 231 224 220 220 221 221 222 224 224 223 222 223 222 216 213 213 210 206 201 198 207 224 214 209 215 218 214 215 218 225 232 234 236 239 243 247 248 251 258 264 267 266
178 163 111 110 182 198 232 275 318 100 111 103 84 54 6 19 72 89 79 78 128 145 151 151 150 152 153 153 153 154 160 162 158 156 158 160 165 166 161 167 190 208 214 220 233 237 231 227 225 223 223 224 223 223 222 221 221 217 210 209 206 201 198 194 192 206 218 208 212 226 224 218 221 222 228 237 240 241 240 240 247 252 254 259 266 270 269
150 110 108 168 213 251 306 279 200 88 90 84 70 50 14 5 31 84 90 83 86 95 110 124 129 130 129 129 134 141 148 152 150 160 177 175 168 168 166 179 230 240 227 216 224 233 234 233 230 227 226 226 224 222 219 215 212 207 203 200 193 188 187 186 191 208 212 204 219 232 226 223 225 224 232 242 244 245 242 240 247 253 256 263 268 273 276
140 121 98 181 200 338 352 325 275 322 102 130 116 89 19 354 357 24 91 99 96 98 106 116 123 122 113 104 123 143 144 148 166 190 187 168 155 157 164 170 241 254 244 234 221 228 236 236 235 235 232 226 221 215 210 207 207 205 202 198 194 190 189 191 201 215 207 208 227 234 228 226 228 228 236 242 245 248 244 242 247 252 256 260 262 270 279
86 100 76 51 127 167 270 277 292 317 235 149 125 92 350 329 348 348 57 121 118 120 119 121 124 120 105 90 146 153 158 182 190 177 164 153 146 173 185 177 200 214 204 181 185 237 241 238 240 239 232 223 214 210 210 210 209 206 202 202 204 201 198 201 210 206 201 216 232 232 229 230 233 234 238 244 250 251 247 248 250 249 251 254 259 270 280
56 89 96 118 160 180 247 264 294 325 300 167 110 65 337 304 337 336 312 131 120 126 133 136 132 115 115 195 216 159 169 175 165 160 155 148 161 220 208 194 190 188 193 225 272 270 255 246 246 241 231 222 215 212 213 209 204 202 202 207 212 207 203 208 212 199 202 217 224 225 230 235 237 237 241 249 255 252 251 251 250 250 254 261 269 274 275
46 84 107 184 171 160 275 262 297 331 336 133 92 68 257 300 333 343 72 103 96 110 122 129 123 101 146 182 94 67 157 164 153 158 158 146 196 192 180 186 196 205 227 260 277 282 276 264 254 244 234 225 217 214 213 208 204 205 209 217 219 212 211 220 219 207 212 220 214 217 228 236 239 241 244 253 257 255 254 252 251 254 257 265 274 273 270
32 65 98 273 230 344 289 278 321 347 22 80 80 154 225 312 352 46 71 66 67 81 87 86 77 69 86 92 65 64 100 126 121 137 137 74 281 221 234 258 269 281 281 277 275 275 272 268 261 250 239 230 223 219 217 214 213 214 217 224 222 218 223 232 220 207 214 219 210 214 227 237 243 244 245 253 257 254 252 252 253 253 255 275 289 280 271
60 90 93 287 261 325 307 309 1 22 49 97 107 177 214 348 27 62 66 63 63 66 71 74 72 67 64 58 51 51 61 71 67 65 56 21 349 333 311 289 285 285 279 276 273 261 252 254 262 262 249 238 229 223 221 222 221 218 222 231 229 229 238 235 213 207 218 222 216 222 235 244 246 243 245 251 251 247 248 248 241 237 262 294 296 275 262
94 72 37 60 222 307 315 316 3 28 61 159 156 121 72 47 50 56 55 55 54 52 58 62 59 54 48 40 33 30 28 25 20 12 1 348 343 343 331 303 290 282 272 269 266 256 247 248 254 258 253 242 232 226 227 230 227 222 228 239 238 239 240 227 211 212 222 226 226 235 244 247 244 242 243 245 241 237 238 238 239 252 275 286 274 249 259
75 75 36 158 241 309 352 49 88 57 80 106 102 91 74 59 56 54 49 47 45 45 50 49 43 39 34 26 20 19 18 13 5 358 352 345 339 339 338 322 299 281 270 264 257 245 243 248 249 249 248 240 232 229 232 236 232 229 236 240 235 234 232 222 215 216 221 225 234 246 252 250 245 241 241 240 236 235 241 250 264 277 278 258 240 254 274
89 124 120 315 310 358 43 75 90 84 85 87 81 77 72 64 60 57 52 47 42 41 43 40 36 33 29 24 19 15 12 6 1 357 354 350 344 340 338 325 296 269 257 255 251 243 244 249 244 239 236 232 229 231 235 236 231 226 227 226 223 223 223 221 219 218 219 225 241 266 274 265 254 247 243 241 242 246 255 265 272 269 249 239 253 272 282
104 102 65 24 22 30 49 69 77 78 79 77 72 71 70 68 65 59 51 46 39 35 37 35 30 24 19 18 16 8 3 3 0 354 346 342 340 336 329 316 293 266 244 241 248 244 229 217 215 216 215 213 216 227 234 235 233 229 223 218 214 212 211 209 205 202 205 237 299 294 277 260 251 247 244 244 248 252 259 263 257 244 241 253 267 278 288
112 100 349 5 48 48 51 62 68 70 71 69 66 65 65 66 68 63 52 39 31 31 33 31 25 17 9 6 4 360 1 2 357 348 339 334 331 325 318 306 292 272 248 240 238 220 199 196 201 203 205 206 208 214 223 229 230 221 205 196 184 173 177 180 170 138 26 357 336 301 261 244 243 244 244 248 254 256 256 255 251 251 258 267 278 289 300
110 153 264 309 73 67 59 59 61 64 69 69 66 64 61 57 57 57 51 35 25 24 21 15 13 11 6 1 354 347 350 352 345 339 335 329 323 316 308 296 285 277 259 237 216 196 189 192 191 187 179 171 167 156 142 145 143 123 109 107 106 104 109 115 86 17 357 343 323 291 256 244 243 244 243 247 253 255 255 254 255 262 272 282 291 300 307
64 78 273 308 61 59 54 58 59 58 63 66 64 61 57 50 44 39 38 32 24 20 13 5 2 359 354 349 340 332 332 336 337 335 328 319 311 302 292 281 275 273 255 226 205 192 189 190 184 171 150 144 153 154 141 137 138 115 67 39 45 59 53 38 23 4 343 311 280 260 246 240 240 240 241 243 246 248 250 252 259 270 282 291 296 301 305
149 181 194 172 117 71 43 56 62 58 59 66 66 60 53 47 39 29 21 17 17 18 10 360 354 349 343 341 336 327 321 320 322 322 315 307 300 293 286 277 266 254 234 216 201 187 179 176 174 167 157 153 157 159 157 157 148 109 44 21 36 45 24 9 2 342 309 270 252 246 240 237 237 237 236 235 235 238 245 253 264 276 286 293 298 301 304
152 205 167 132 118 117 80 68 72 69 61 63 65 59 52 47 39 30 25 22 21 18 2 347 346 346 342 340 336 329 320 311 306 302 296 291 287 282 275 266 250 226 205 200 196 181 168 165 164 161 155 149 146 150 167 179 157 99 20 339 331 302 304 316 295 268 255 241 235 234 232 232 235 236 234 232 234 240 252 263 271 278 285 292 296 301 303
28 258 170 113 102 107 89 72 68 63 56 58 60 53 49 48 43 33 30 30 30 19 357 346 352 355 352 348 339 329 320 306 296 287 276 269 266 265 256 242 231 214 196 190 187 175 164 161 161 158 159 167 194 237 242 233 231 257 285 282 242 223 226 218 212 220 224 223 226 229 232 236 240 239 237 238 241 251 264 272 274 276 281 286 291 296 298
101 72 101 90 90 97 87 70 60 55 53 56 58 52 47 47 43 35 33 36 35 26 9 357 353 350 352 354 348 337 326 307 288 273 262 254 247 246 244 233 221 206 190 181 176 169 166 172 182 192 207 229 248 253 246 243 253 266 269 246 204 205 217 217 212 213 216 221 229 235 238 240 240 238 239 242 249 259 265 267 269 274 280 284 288 292 293
129 137 105 80 72 67 63 58 52 48 46 44 47 47 41 36 31 28 29 28 25 21 13 1 352 347 351 356 353 345 335 308 279 263 255 248 238 233 236 229 212 197 186 178 175 176 186 205 219 226 234 243 242 229 223 233 246 235 215 198 193 206 222 225 221 218 222 229 233 233 233 234 235 236 240 247 253 258 259 261 268 276 281 285 289 290 288
106 120 106 77 59 51 55 61 53 41 37 34 33 30 22 17 14 12 12 10 7 8 6 360 356 353 352 356 355 348 335 307 276 257 244 239 238 234 225 211 199 191 186 183 186 200 217 224 223 225 235 243 229 204 186 173 173 176 183 193 205 217 225 227 225 225 226 226 225 224 227 232 237 244 251 253 251 250 253 262 273 279 282 286 288 287 283
74 76 77 74 63 55 60 65 55 41 35 30 24 16 5 0 359 359 359 355 353 352 350 350 355 357 356 359 358 351 344 326 286 261 244 234 228 217 204 195 189 187 188 191 203 218 222 219 223 232 232 200 161 148 147 155 162 168 177 191 207 219 223 222 221 220 218 218 221 227 237 247 257 263 262 255 247 246 254 266 274 277 280 283 282 280 278
64 68 72 69 61 58 61 57 45 36 31 25 20 14 5 359 356 356 355 351 348 345 340 338 342 345 350 356 355 350 350 343 315 281 258 241 222 202 194 191 187 189 200 212 218 220 220 222 224 209 173 153 143 139 150 167 173 176 184 197 211 220 221 224 227 227 229 234 239 245 253 260 266 267 258 250 250 256 261 267 271 274 277 279 279 278 275
56 60 62 56 48 47 47 39 31 26 23 20 17 12 8 2 355 350 347 344 343 340 337 336 334 331 335 342 346 346 346 341 329 308 274 247 221 201 200 207 214 229 240 234 226 223 220 210 194 171 157 157 162 156 156 171 186 197 205 212 219 222 224 229 234 238 246 254 255 256 261 264 264 259 253 253 259 262 262 265 269 273 277 279 277 275 271
54 51 47 39 32 31 31 27 20 16 15 14 11 8 8 5 355 346 340 336 334 334 332 331 329 326 326 329 331 334 335 333 328 319 289 249 226 220 234 251 259 256 248 234 221 209 191 176 170 172 177 185 187 175 166 181 199 214 224 227 228 229 231 235 241 249 257 260 259 260 261 260 258 259 261 263 263 259 259 264 267 270 274 273 270 270 270
39 34 28 20 12 10 12 11 7 4 2 1 360 1 3 2 355 347 340 334 332 331 328 324 323 322 322 320 320 322 324 324 322 315 295 263 244 244 252 254 246 235 220 195 175 169 169 168 175 186 192 197 206 226 262 261 245 236 234 234 236 238 239 244 254 264 269 269 269 268 262 258 262 267 267 264 260 257 260 264 263 263 266 265 264 265 264
30 24 17 9 4 0 358 356 354 351 347 344 345 345 346 347 347 344 341 336 330 324 320 315 312 310 308 308 309 311 313 317 318 310 293 272 255 245 238 226 215 202 183 169 165 168 175 182 185 184 189 203 221 247 269 269 257 239 231 234 240 245 252 262 270 273 273 273 273 272 269 269 269 265 256 253 254 256 259 259 254 255 261 262 258 253 250
33 27 15 7 5 359 351 345 341 337 332 329 327 326 329 334 335 333 332 329 322 314 309 306 304 302 301 303 306 308 308 314 316 304 282 263 244 224 208 198 191 184 177 176 178 176 170 170 181 193 203 211 224 243 250 245 235 227 225 231 239 249 262 271 272 272 273 273 272 271 270 266 259 251 247 250 252 252 252 251 248 249 254 254 248 242 243
11 4 355 351 348 342 336 332 330 328 326 324 320 319 321 325 324 322 321 319 316 315 313 308 305 302 301 304 309 308 305 309 311 294 265 244 227 210 199 192 188 186 184 183 178 171 170 241 231 221 228 242 248 245 238 234 234 233 233 238 249 256 258 262 267 272 272 269 266 263 256 247 241 240 243 248 250 252 254 253 250 248 247 246 243 242 246
351 345 340 336 330 326 322 320 319 319 320 321 320 320 321 322 320 318 318 317 314 311 310 308 305 301 300 304 308 305 299 300 301 281 251 228 207 193 188 187 184 180 172 163 166 234 298 277 226 215 230 246 239 225 224 234 244 245 245 251 257 258 258 265 272 275 267 259 256 255 250 245 243 245 247 247 248 252 255 253 249 245 242 242 244 247 250
353 348 344 340 336 333 330 327 326 324 322 320 320 320 320 319 318 317 319 320 316 309 305 305 305 304 304 305 305 302 297 292 284 263 235 207 178 158 147 143 150 163 179 207 249 272 265 226 207 216 234 233 219 217 227 236 239 245 254 259 259 262 271 279 281 274 262 255 256 258 262 264 263 260 255 249 247 250 254 253 250 245 243 245 250 254 256
356 354 351 348 345 341 337 335 334 331 328 325 324 322 318 315 314 315 316 317 316 314 310 306 303 303 304 305 306 306 299 278 257 238 217 198 183 175 177 197 247 275 279 271 255 234 212 204 215 233 233 224 225 232 235 240 252 264 268 269 273 280 283 282 276 266 261 263 268 276 285 290 288 280 269 258 254 256 258 257 253 248 247 249 253 256 260
357 356 354 352 350 345 339 336 335 334 331 328 326 325 325 324 321 319 317 316 315 313 310 304 300 298 298 301 307 311 289 246 222 207 200 202 207 213 222 235 251 258 247 224 204 196 198 211 228 233 230 234 243 247 254 266 274 275 276 283 290 283 256 250 261 268 273 282 291 298 304 306 297 282 269 259 257 261 261 253 244 240 241 245 250 255 261
4 360 356 353 351 347 342 340 339 338 335 331 328 329 332 334 331 329 330 330 325 318 311 304 297 290 283 282 290 293 257 223 209 204 211 231 239 234 226 215 196 184 182 184 189 200 211 221 229 235 244 256 263 269 277 282 281 284 295 296 278 237 208 203 254 291 296 300 300 301 306 308 295 280 274 266 263 265 263 247 235 232 235 241 250 259 265
8 4 0 357 356 354 353 353 352 352 352 348 340 337 339 342 345 348 348 350 349 344 335 328 317 298 273 250 242 243 234 221 217 220 230 241 237 225 205 179 172 179 184 191 203 215 220 226 238 255 270 278 281 284 288 289 293 306 307 282 245 227 214 208 228 264 285 295 297 296 297 295 286 281 280 276 270 269 265 254 244 242 244 251 259 265 269
10 9 8 6 4 1 359 359 2 6 9 5 359 356 357 359 1 356 351 358 9 10 3 1 359 345 307 238 217 219 222 217 212 205 190 197 213 215 205 189 192 194 193 200 217 229 237 249 268 280 282 281 281 280 280 286 299 308 299 259 234 230 230 233 243 255 263 271 279 284 285 283 281 282 283 279 272 268 265 260 256 254 256 260 262 263 263
13 12 13 12 10 7 6 5 5 7 10 8 7 7 8 8 7 0 355 8 36 45 33 27 29 28 34 154 185 195 194 185 178 167 151 163 189 205 217 213 209 210 217 236 250 258 263 268 276 278 272 267 267 269 275 287 297 303 299 281 258 249 249 252 254 258 265 269 272 272 271 269 270 274 278 276 268 262 260 258 257 257 257 255 252 250 252
15 15 16 16 16 14 13 11 9 8 8 7 4 1 0 5 10 10 11 24 47 49 37 32 35 44 61 111 183 193 184 175 177 183 185 190 202 218 238 234 228 234 244 250 253 256 256 257 262 261 259 263 267 270 277 287 293 300 306 299 281 266 260 257 256 262 270 273 274 276 273 264 259 261 267 268 264 259 258 257 256 256 253 245 238 239 244
15 16 16 18 18 18 17 16 15 14 13 10 4 359 359 5 7 6 8 18 27 26 25 29 32 34 34 34 122 187 192 203 236 264 267 262 264 271 273 261 252 252 249 245 246 246 246 251 255 253 255 263 267 267 271 283 294 308 315 309 294 277 268 268 273 280 282 280 279 281 279 269 257 252 253 255 255 254 252 249 250 253 251 244 238 236 237
14 16 16 18 20 20 19 18 18 17 19 22 20 13 11 17 16 6 2 5 10 15 21 25 25 27 30 32 41 140 203 233 263 275 280 292 298 297 290 268 259 256 251 250 251 250 251 253 251 248 249 254 256 257 262 276 297 316 319 308 288 272 265 272 285 298 303 300 297 295 289 280 264 250 247 249 252 253 251 245 243 245 245 242 239 236 234
11 13 15 18 22 23 22 23 26 28 31 33 33 31 30 30 28 23 19 14 11 15 25 23 10 8 13 17 14 344 262 259 260 257 267 288 300 300 284 248 242 245 249 253 255 257 260 259 254 252 253 254 254 258 265 276 293 309 309 295 281 274 265 260 268 283 293 299 305 308 302 286 262 248 253 258 257 257 257 253 249 245 238 233 231 230 229
7 11 15 20 23 24 26 30 36 37 35 33 33 34 35 34 31 29 27 22 14 11 14 14 8 2 2 7 7 341 290 281 285 289 296 302 299 294 288 271 256 253 256 258 258 258 258 257 258 261 263 262 262 266 271 277 290 301 298 280 267 264 261 259 267 280 288 292 301 310 305 283 253 241 256 265 264 262 262 260 254 240 221 215 217 221 224
352 2 11 19 24 26 28 33 37 35 32 29 27 27 30 33 32 31 31 31 31 28 21 13 7 358 350 352 357 344 310 292 290 292 296 295 290 288 286 275 263 259 261 264 262 257 249 245 250 259 267 269 271 272 272 275 285 295 289 268 254 253 262 272 278 281 285 288 295 306 308 293 266 247 247 258 263 262 259 255 247 225 208 209 215 219 219
328 337 353 7 15 20 25 29 29 26 23 21 18 18 21 26 26 26 25 25 26 26 21 15 13 9 357 346 344 340 331 321 309 299 293 289 285 282 276 268 262 261 263 264 260 249 238 237 243 254 269 282 285 279 271 269 275 285 288 276 264 262 270 282 285 281 283 290 294 299 305 301 284 265 253 253 260 261 258 254 246 229 215 214 218 217 216
324 324 337 349 356 4 14 21 21 21 19 13 6 5 11 16 17 19 19 13 5 359 354 352 356 4 2 350 341 336 337 342 336 321 307 299 292 281 270 261 259 260 263 264 261 253 248 250 255 260 267 278 285 281 274 270 272 280 290 288 279 273 274 279 281 283 290 295 292 287 289 295 290 275 260 248 246 249 250 247 238 228 220 218 219 221 225
351 346 352 2 10 18 17 2 2 10 14 9 359 353 354 354 353 1 8 4 358 354 349 342 339 342 340 328 314 300 294 309 321 318 312 310 305 291 273 260 255 258 264 269 270 266 261 259 261 264 268 273 278 280 276 272 273 280 288 289 283 277 274 274 276 279 284 285 279 273 278 290 292 279 260 241 234 238 243 244 242 239 236 233 230 231 234
Height
1413 1411 1411 1409 1411 1414 1415 1416 1418 1418 1419 1423 1428 1433 1432 1434 1443 1446 1442 1442 1445 1440 1437 1437 1434 1432 1433 1434 1435 1436 1437 1439 1441 1443 1446 1448 1450 1452 1454 1456 1457 1459 1461 1462 1464 1466 1467 1468 1471 1473 1475 1478 1480 1482 1483 1485 1488 1490 1491 1493 1496 1500 1503 1505 1508 1511 1515 1518 1520 1520 1520 1520 1521 1522 1522 1523 1524 1524 1525 1526 1527 1527 1528 1529 1529 1530 1530
1411 1409 1410 1408 1409 1413 1413 1412 1413 1413 1416 1419 1422 1425 1425 1427 1430 1429 1431 1439 1439 1430 1427 1427 1425 1425 1428 1431 1434 1435 1436 1438 1440 1442 1445 1447 1448 1450 1452 1453 1455 1457 1458 1459 1460 1462 1463 1466 1467 1469 1472 1474 1476 1478 1480 1482 1484 1485 1487 1489 1491 1495 1497 1499 1503 1505 1508 1512 1515 1516 1517 1518 1519 1519 1520 1521 1522 1523 1523 1524 1525 1525 1526 1527 1527 1528 1527
1413 1408 1407 1407 1408 1412 1414 1413 1411 1410 1413 1415 1417 1419 1421 1424 1428 1426 1429 1438 1437 1425 1418 1419 1421 1425 1428 1431 1433 1434 1435 1437 1439 1441 1444 1445 1447 1448 1450 1452 1454 1455 1457 1457 1458 1459 1461 1462 1464 1466 1468 1470 1472 1475 1476 1478 1480 1481 1483 1484 1487 1491 1494 1497 1500 1502 1505 1510 1512 1512 1513 1515 1516 1517 1518 1519 1520 1521 1522 1522 1523 1523 1524 1524 1525 1525 1525
1416 1406 1406 1408 1405 1408 1414 1414 1412 1412 1414 1416 1416 1416 1418 1421 1426 1429 1434 1439 1434 1422 1417 1421 1424 1425 1427 1429 1431 1432 1434 1436 1437 1439 1441 1443 1446 1448 1450 1452 1454 1455 1456 1457 1457 1458 1459 1460 1461 1463 1465 1467 1470 1471 1473 1475 1477 1479 1480 1482 1486 1489 1493 1497 1502 1505 1506 1508 1509 1509 1510 1512 1513 1515 1516 1517 1518 1519 1519 1520 1521 1521 1522 1522 1522 1522 1522
1415 1406 1405 1406 1406 1417 1426 1417 1408 1411 1414 1416 1417 1416 1415 1415 1418 1427 1434 1430 1420 1416 1418 1423 1427 1427 1426 1426 1427 1430 1432 1434 1436 1438 1440 1443 1446 1448 1451 1452 1454 1455 1456 1456 1456 1456 1457 1458 1460 1462 1464 1465 1467 1468 1470 1472 1474 1475 1477 1479 1482 1484 1488 1493 1501 1506 1507 1506 1507 1508 1508 1510 1511 1512 1513 1514 1515 1516 1517 1518 1518 1519 1519 1520 1520 1520 1520
1412 1406 1400 1404 1419 1435 1434 1414 1401 1405 1411 1414 1418 1420 1418 1414 1412 1416 1419 1415 1411 1414 1417 1419 1422 1424 1422 1423 1425 1427 1430 1432 1435 1438 1441 1444 1446 1449 1451 1452 1453 1454 1455 1455 1456 1456 1456 1458 1459 1462 1463 1464 1465 1466 1468 1469 1470 1471 1473 1475 1477 1480 1485 1490 1497 1502 1502 1503 1506 1508 1507 1508 1509 1510 1510 1511 1512 1514 1514 1515 1516 1516 1517 1517 1517 1517 1517
1409 1406 1403 1419 1437 1434 1419 1407 1402 1402 1405 1408 1414 1418 1417 1413 1410 1410 1413 1413 1411 1412 1414 1415 1418 1421 1422 1425 1427 1428 1430 1432 1435 1438 1441 1443 1446 1448 1449 1450 1451 1452 1453 1454 1455 1455 1456 1458 1459 1461 1463 1463 1464 1466 1467 1468 1469 1470 1473 1475 1477 1480 1484 1488 1493 1496 1498 1502 1506 1507 1506 1507 1507 1507 1507 1508 1509 1511 1511 1512 1512 1513 1513 1514 1514 1514 1514
1408 1409 1413 1428 1433 1419 1408 1409 1407 1404 1406 1409 1415 1422 1422 1418 1415 1414 1414 1414 1412 1412 1415 1417 1420 1423 1425 1428 1430 1431 1433 1435 1436 1439 1441 1443 1445 1447 1448 1449 1450 1450 1451 1452 1453 1454 1456 1458 1459 1461 1462 1463 1464 1465 1467 1469 1472 1473 1475 1476 1478 1481 1483 1484 1488 1492 1495 1500 1504 1504 1504 1505 1504 1504 1504 1505 1506 1507 1508 1508 1509 1509 1510 1511 1512 1512 1512
1409 1415 1420 1422 1423 1420 1419 1417 1412 1409 1409 1409 1415 1427 1429 1422 1420 1420 1418 1415 1414 1415 1418 1420 1422 1424 1428 1432 1434 1433 1435 1436 1437 1439 1441 1442 1444 1445 1446 1448 1448 1449 1450 1451 1452 1454 1455 1457 1459 1460 1461 1462 1464 1465 1466 1467 1470 1471 1471 1472 1474 1478 1482 1485 1489 1493 1495 1497 1499 1499 1501 1501 1501 1501 1501 1502 1503 1504 1504 1505 1506 1507 1508 1508 1509 1509 1508
1408 1414 1423 1426 1430 1435 1430 1421 1413 1407 1405 1403 1406 1422 1431 1424 1420 1422 1420 1418 1417 1417 1419 1422 1423 1426 1433 1438 1437 1434 1435 1437 1438 1439 1441 1441 1442 1444 1445 1447 1447 1448 1449 1450 1452 1454 1455 1456 1458 1458 1459 1461 1462 1463 1462 1462 1464 1465 1467 1469 1471 1475 1480 1484 1489 1492 1493 1493 1494 1495 1496 1497 1497 1498 1498 1499 1500 1501 1502 1503 1503 1503 1504 1504 1505 1505 1504
1408 1414 1426 1431 1434 1435 1429 1420 1411 1406 1406 1402 1403 1424 1439 1429 1420 1422 1420 1419 1420 1419 1420 1422 1422 1429 1440 1443 1438 1434 1436 1437 1437 1439 1440 1441 1442 1444 1444 1445 1446 1447 1448 1449 1450 1452 1453 1454 1456 1456 1457 1458 1459 1460 1459 1460 1461 1463 1467 1471 1472 1473 1475 1479 1485 1489 1490 1489 1489 1490 1492 1494 1494 1495 1496 1497 1498 1499 1500 1500 1500 1501 1501 1502 1503 1503 1502
1415 1420 1427 1429 1428 1429 1424 1417 1411 1407 1403 1399 1412 1442 1451 1432 1422 1424 1421 1420 1422 1421 1421 1423 1424 1431 1440 1440 1437 1435 1436 1437 1438 1440 1441 1442 1443 1444 1444 1445 1445 1446 1446 1447 1448 1450 1451 1452 1454 1455 1455 1455 1457 1458 1458 1459 1460 1461 1465 1469 1470 1470 1472 1475 1481 1486 1487 1486 1486 1487 1489 1491 1492 1493 1494 1495 1496 1497 1497 1497 1498 1498 1499 1500 1500 1500 1499
1420 1424 1428 1429 1427 1424 1419 1414 1409 1402 1400 1411 1434 1453 1447 1431 1428 1427 1422 1423 1425 1423 1423 1426 1428 1432 1435 1436 1437 1436 1436 1437 1439 1440 1442 1443 1444 1444 1444 1444 1445 1445 1446 1446 1447 1448 1449 1450 1452 1453 1453 1454 1455 1455 1455 1456 1456 1458 1462 1465 1467 1469 1471 1474 1478 1482 1483 1483 1483 1484 1487 1489 1490 1491 1492 1493 1494 1494 1494 1495 1496 1496 1496 1497 1497 1497 1496
1424 1427 1430 1433 1432 1423 1415 1412 1407 1400 1410 1434 1446 1442 1434 1432 1432 1429 1426 1428 1429 1428 1428 1429 1432 1434 1435 1435 1436 1436 1437 1438 1439 1440 1442 1442 1443 1443 1443 1443 1444 1444 1445 1445 1445 1446 1447 1448 1450 1451 1451 1451 1451 1452 1452 1452 1453 1456 1461 1464 1465 1468 1470 1472 1475 1477 1479 1480 1481 1483 1485 1487 1488 1489 1490 1491 1491 1491 1491 1492 1493 1493 1494 1495 1495 1494 1494
1427 1430 1434 1441 1442 1428 1414 1412 1412 1412 1423 1438 1437 1431 1432 1433 1431 1429 1431 1431 1431 1432 1433 1433 1434 1436 1435 1436 1437 1437 1437 1438 1439 1440 1441 1441 1441 1442 1442 1443 1443 1443 1443 1444 1444 1444 1445 1446 1448 1448 1449 1448 1448 1448 1449 1449 1452 1456 1459 1461 1464 1466 1468 1471 1474 1475 1476 1478 1480 1482 1483 1484 1485 1486 1487 1488 1488 1488 1489 1489 1489 1490 1491 1492 1493 1493 1492
1429 1438 1444 1446 1444 1432 1418 1416 1422 1426 1428 1430 1430 1430 1432 1431 1430 1431 1433 1433 1434 1435 1434 1434 1435 1435 1435 1437 1437 1438 1438 1438 1438 1439 1439 1439 1440 1440 1440 1441 1441 1441 1442 1442 1442 1443 1444 1445 1446 1446 1446 1445 1445 1445 1446 1448 1451 1454 1456 1459 1462 1464 1468 1472 1475 1475 1476 1478 1480 1481 1482 1482 1483 1484 1485 1485 1486 1487 1488 1488 1488 1488 1489 1490 1491 1491 1490
1430 1439 1443 1439 1436 1432 1425 1422 1425 1428 1428 1429 1430 1430 1429 1430 1433 1434 1433 1435 1437 1437 1435 1435 1434 1435 1436 1437 1437 1438 1439 1438 1438 1438 1438 1438 1439 1440 1440 1440 1440 1441 1441 1440 1440 1441 1442 1443 1444 1445 1445 1445 1446 1447 1449 1451 1452 1453 1454 1457 1460 1463 1469 1474 1475 1475 1476 1477 1478 1480 1481 1482 1482 1483 1484 1484 1486 1487 1487 1487 1487 1487 1488 1488 1489 1489 1489
1430 1434 1437 1434 1433 1433 1431 1428 1428 1429 1429 1431 1431 1430 1430 1431 1434 1435 1437 1440 1442 1441 1439 1437 1436 1437 1438 1438 1438 1439 1439 1438 1438 1438 1438 1439 1440 1440 1440 1440 1440 1440 1440 1440 1440 1441 1441 1443 1444 1445 1445 1446 1448 1451 1453 1454 1455 1455 1455 1456 1459 1464 1469 1472 1473 1474 1475 1476 1477 1479 1480 1481 1482 1483 1483 1483 1484 1485 1485 1485 1485 1486 1486 1487 1487 1487 1486
1433 1436 1436 1433 1433 1434 1433 1432 1431 1430 1431 1431 1431 1432 1434 1435 1435 1438 1441 1443 1445 1444 1441 1439 1439 1439 1437 1437 1439 1440 1440 1439 1439 1439 1440 1440 1439 1439 1440 1440 1440 1441 1441 1442 1442 1441 1442 1443 1444 1444 1446 1447 1450 1453 1455 1457 1460 1460 1459 1460 1462 1464 1466 1468 1470 1473 1474 1475 1476 1478 1480 1481 1481 1481 1481 1481 1482 1482 1483 1483 1484 1484 1485 1485 1485 1484 1483
1432 1436 1435 1432 1432 1434 1433 1433 1433 1432 1432 1432 1431 1432 1435 1436 1437 1438 1440 1442 1443 1442 1441 1441 1441 1439 1438 1439 1440 1441 1441 1441 1440 1440 1440 1439 1439 1439 1439 1439 1440 1440 1440 1441 1441 1441 1441 1442 1443 1445 1448 1449 1452 1454 1456 1459 1462 1464 1463 1464 1464 1464 1464 1467 1469 1470 1472 1474 1476 1478 1479 1479 1479 1479 1479 1480 1480 1481 1481 1482 1482 1483 1483 1482 1482 1481 1480
1433 1434 1433 1431 1433 1434 1433 1434 1435 1434 1434 1433 1432 1433 1434 1434 1436 1438 1439 1441 1443 1443 1443 1444 1441 1440 1440 1441 1442 1443 1443 1441 1440 1440 1439 1439 1439 1439 1439 1439 1439 1439 1439 1440 1440 1440 1440 1441 1443 1445 1446 1447 1450 1452 1454 1455 1457 1459 1462 1465 1464 1463 1463 1465 1467 1469 1472 1475 1476 1477 1477 1477 1477 1478 1478 1479 1479 1479 1480 1480 1480 1481 1480 1480 1480 1479 1478
1436 1434 1431 1432 1436 1438 1438 1438 1437 1436 1435 1434 1433 1434 1435 1436 1438 1439 1440 1441 1442 1443 1445 1446 1445 1444 1444 1444 1445 1445 1443 1441 1440 1440 1439 1439 1439 1439 1439 1439 1439 1439 1439 1439 1440 1440 1440 1441 1443 1443 1444 1445 1446 1448 1450 1451 1453 1456 1462 1466 1468 1467 1467 1468 1471 1473 1475 1476 1475 1475 1475 1475 1476 1476 1477 1477 1477 1478 1478 1478 1478 1478 1478 1477 1477 1476 1476
1432 1431 1431 1433 1436 1439 1441 1440 1439 1438 1437 1435 1435 1436 1437 1438 1440 1441 1441 1442 1442 1444 1447 1450 1450 1449 1448 1447 1446 1444 1442 1441 1440 1438 1438 1439 1439 1439 1439 1439 1439 1439 1438 1439 1439 1439 1439 1440 1441 1441 1443 1444 1446 1447 1450 1453 1454 1458 1464 1469 1470 1470 1470 1471 1473 1474 1474 1474 1473 1473 1473 1473 1473 1474 1474 1475 1475 1475 1476 1476 1476 1476 1475 1475 1474 1474 1473
1435 1437 1438 1437 1437 1439 1442 1442 1441 1440 1439 1437 1437 1437 1437 1437 1440 1442 1444 1444 1445 1447 1449 1449 1449 1448 1447 1446 1444 1442 1440 1440 1438 1438 1438 1438 1438 1438 1438 1438 1438 1438 1437 1437 1438 1439 1440 1441 1442 1443 1445 1446 1447 1449 1451 1453 1455 1457 1461 1464 1465 1465 1465 1465 1466 1468 1469 1470 1470 1470 1470 1471 1471 1472 1472 1473 1473 1473 1473 1473 1473 1473 1472 1472 1472 1471 1471
1440 1444 1443 1439 1438 1440 1442 1442 1442 1441 1440 1438 1438 1437 1438 1439 1441 1443 1444 1445 1446 1448 1447 1447 1446 1446 1444 1443 1442 1440 1439 1438 1438 1438 1437 1437 1437 1437 1437 1436 1437 1436 1436 1436 1438 1439 1440 1442 1442 1443 1444 1445 1446 1447 1449 1452 1453 1455 1457 1458 1459 1460 1462 1462 1463 1465 1466 1467 1468 1468 1468 1469 1469 1469 1470 1470 1470 1470 1470 1470 1470 1470 1470 1469 1469 1469 1468
1442 1446 1444 1440 1440 1442 1442 1442 1442 1442 1440 1439 1438 1438 1439 1439 1441 1442 1444 1445 1446 1446 1445 1444 1444 1443 1442 1442 1441 1440 1439 1438 1437 1437 1436 1436 1436 1436 1435 1435 1435 1435 1436 1437 1438 1439 1440 1440 1441 1442 1442 1443 1444 1446 1448 1450 1452 1453 1455 1456 1457 1459 1460 1461 1462 1463 1464 1465 1465 1466 1466 1467 1467 1467 1467 1468 1467 1467 1467 1467 1467 1467 1467 1467 1467 1466 1466
1442 1443 1441 1440 1442 1443 1443 1443 1443 1442 1441 1439 1439 1439 1439 1439 1440 1441 1442 1442 1443 1444 1444 1444 1442 1442 1441 1441 1440 1440 1439 1438 1437 1437 1436 1435 1435 1434 1434 1434 1434 1435 1437 1437 1438 1439 1439 1440 1440 1441 1442 1443 1444 1446 1448 1449 1450 1452 1454 1456 1457 1458 1459 1460 1461 1462 1462 1462 1463 1464 1464 1465 1465 1464 1464 1464 1464 1464 1464 1464 1465 1465 1464 1464 1464 1464 1464
1440 1440 1440 1441 1444 1445 1444 1444 1443 1441 1440 1439 1439 1439 1438 1439 1439 1440 1440 1441 1441 1442 1442 1442 1442 1441 1440 1439 1439 1439 1438 1437 1437 1437 1436 1436 1435 1435 1434 1434 1434 1435 1436 1437 1438 1439 1440 1440 1441 1441 1442 1443 1445 1446 1447 1448 1450 1452 1453 1455 1456 1456 1457 1458 1459 1460 1460 1461 1461 1462 1462 1462 1462 1462 1462 1461 1461 1462 1462 1462 1462 1462 1462 1462 1462 1461 1462
1441 1442 1442 1443 1445 1445 1443 1442 1441 1440 1439 1439 1439 1438 1438 1438 1439 1440 1440 1441 1441 1441 1441 1440 1440 1440 1439 1439 1438 1437 1436 1436 1436 1436 1436 1436 1436 1436 1435 1435 1436 1436 1437 1437 1438 1438 1439 1440 1440 1441 1442 1443 1444 1445 1447 1448 1449 1450 1452 1453 1454 1454 1455 1456 1457 1457 1458 1459 1459 1460 1460 1460 1459 1459 1459 1459 1459 1459 1459 1460 1460 1460 1460 1460 1459 1459 1460
1443 1443 1443 1443 1444 1443 1442 1441 1441 1441 1440 1440 1439 1439 1439 1439 1439 1440 1440 1441 1441 1441 1441 1440 1439 1439 1438 1438 1437 1436 1435 1435 1434 1434 1434 1435 1435 1435 1436 1436 1437 1437 1437 1437 1436 1437 1437 1439 1439 1440 1441 1442 1443 1444 1445 1446 1448 1449 1450 1450 1451 1452 1453 1454 1454 1455 1456 1457 1457 1457 1457 1457 1457 1457 1457 1457 1457 1457 1457 1457 1457 1458 1458 1458 1457 1458 1458
1444 1443 1443 1442 1442 1442 1442 1442 1442 1442 1442 1441 1441 1441 1440 1440 1440 1440 1440 1440 1440 1440 1440 1440 1439 1439 1438 1437 1436 1436 1435 1434 1432 1432 1432 1433 1434 1434 1435 1435 1436 1436 1436 1435 1435 1436 1437 1438 1439 1441 1441 1441 1442 1443 1444 1445 1446 1447 1447 1448 1449 1450 1451 1452 1452 1453 1454 1454 1454 1454 1454 1454 1454 1454 1454 1454 1454 1454 1455 1455 1455 1456 1456 1456 1456 1456 1457
1444 1443 1443 1442 1442 1442 1442 1443 1442 1442 1442 1442 1442 1441 1441 1442 1442 1441 1441 1441 1440 1440 1439 1439 1438 1437 1437 1436 1435 1435 1434 1433 1432 1431 1430 1431 1431 1432 1432 1432 1433 1433 1433 1434 1435 1437 1438 1439 1440 1441 1441 1442 1442 1442 1443 1444 1444 1445 1445 1446 1447 1448 1449 1449 1450 1451 1451 1451 1451 1452 1452 1452 1452 1452 1452 1452 1452 1452 1453 1453 1454 1455 1455 1454 1455 1455 1455
1443 1443 1444 1444 1443 1442 1442 1442 1442 1442 1442 1442 1442 1442 1442 1442 1442 1442 1442 1441 1440 1439 1439 1438 1437 1436 1435 1434 1434 1433 1432 1431 1430 1429 1428 1428 1428 1428 1428 1429 1430 1431 1432 1433 1434 1435 1437 1438 1439 1440 1440 1441 1441 1441 1442 1442 1443 1443 1444 1444 1445 1446 1446 1447 1448 1448 1448 1449 1449 1450 1450 1450 1450 1450 1450 1450 1450 1451 1451 1451 1452 1452 1453 1453 1453 1454 1454
1446 1447 1447 1446 1445 1444 1443 1442 1442 1441 1441 1441 1440 1441 1441 1441 1441 1441 1441 1441 1440 1439 1439 1438 1437 1436 1435 1433 1432 1431 1430 1429 1428 1427 1427 1426 1426 1426 1426 1427 1428 1429 1430 1431 1432 1433 1434 1436 1437 1438 1438 1439 1440 1440 1440 1441 1441 1442 1442 1443 1443 1444 1444 1445 1446 1446 1446 1446 1447 1447 1448 1448 1448 1448 1449 1449 1449 1449 1449 1449 1450 1450 1451 1451 1452 1453 1453
1447 1447 1446 1445 1445 1444 1443 1442 1441 1440 1440 1439 1438 1438 1438 1438 1438 1438 1438 1438 1438 1438 1437 1436 1436 1435 1433 1432 1431 1429 1428 1427 1426 1426 1426 1426 1425 1425 1425 1425 1426 1427 1428 1430 1431 1432 1433 1434 1435 1437 1437 1437 1438 1438 1438 1438 1439 1440 1440 1441 1441 1442 1442 1443 1444 1444 1445 1445 1445 1445 1445 1446 1446 1447 1448 1448 1448 1448 1448 1448 1449 1449 1449 1449 1450 1451 1452
1445 1444 1444 1443 1443 1442 1442 1441 1441 1440 1439 1438 1438 1437 1437 1436 1435 1435 1435 1435 1435 1434 1434 1433 1432 1431 1430 1429 1428 1427 1426 1425 1424 1425 1425 1425 1425 1425 1425 1425 1425 1425 1427 1429 1430 1431 1431 1432 1434 1435 1436 1436 1436 1437 1437 1438 1438 1439 1439 1440 1440 1440 1440 1440 1441 1442 1443 1443 1443 1443 1443 1443 1444 1445 1446 1446 1447 1447 1447 1447 1448 1448 1448 1448 1449 1450 1451
1444 1443 1443 1442 1441 1441 1440 1440 1439 1438 1437 1437 1437 1436 1435 1435 1434 1433 1433 1432 1432 1432 1431 1430 1429 1428 1427 1426 1425 1424 1423 1423 1422 1422 1423 1424 1424 1425 1426 1427 1427 1428 1428 1429 1429 1430 1430 1432 1433 1434 1435 1435 1436 1437 1437 1437 1437 1438 1438 1439 1439 1439 1439 1439 1439 1440 1440 1441 1441 1441 1441 1441 1442 1443 1444 1444 1445 1446 1446 1446 1446 1447 1447 1447 1448 1448 1449
1443 1443 1442 1442 1441 1440 1439 1438 1437 1436 1436 1435 1434 1434 1433 1432 1432 1431 1431 1430 1429 1429 1428 1427 1426 1425 1424 1423 1422 1421 1420 1420 1421 1421 1421 1421 1422 1423 1425 1427 1428 1428 1429 1429 1428 1428 1430 1432 1433 1434 1435 1435 1436 1436 1436 1436 1437 1437 1437 1437 1437 1437 1437 1438 1438 1438 1439 1439 1439 1439 1439 1440 1441 1441 1442 1443 1444 1444 1445 1444 1445 1445 1446 1446 1447 1447 1447
1442 1442 1441 1440 1439 1438 1437 1436 1435 1434 1434 1433 1432 1432 1431 1430 1430 1429 1428 1428 1427 1426 1424 1423 1422 1421 1420 1420 1419 1419 1418 1419 1420 1421 1421 1421 1421 1421 1422 1424 1425 1426 1427 1428 1428 1428 1429 1431 1432 1433 1434 1435 1435 1436 1436 1436 1435 1435 1435 1435 1435 1436 1436 1437 1437 1437 1438 1438 1438 1438 1438 1439 1439 1440 1441 1441 1442 1442 1443 1443 1443 1444 1444 1445 1445 1446 1446
1441 1440 1440 1439 1438 1437 1436 1435 1434 1433 1432 1432 1431 1430 1429 1428 1428 1427 1426 1425 1424 1422 1421 1419 1418 1418 1417 1416 1416 1416 1417 1418 1419 1420 1421 1422 1423 1422 1421 1421 1423 1424 1425 1427 1427 1428 1429 1430 1431 1432 1433 1434 1435 1435 1434 1434 1434 1434 1434 1434 1434 1435 1435 1435 1436 1436 1437 1437 1437 1437 1438 1438 1438 1439 1440 1440 1440 1441 1441 1441 1442 1442 1443 1444 1444 1444 1444
1441 1440 1439 1438 1437 1436 1435 1433 1433 1432 1431 1430 1430 1429 1428 1427 1426 1425 1425 1424 1422 1420 1418 1417 1416 1415 1415 1415 1414 1414 1415 1416 1417 1418 1418 1421 1424 1424 1421 1421 1422 1424 1424 1426 1427 1428 1429 1430 1431 1431 1432 1432 1433 1433 1433 1433 1434 1434 1434 1434 1435 1434 1434 1434 1434 1435 1435 1436 1436 1437 1437 1437 1438 1438 1438 1438 1439 1439 1439 1440 1440 1441 1442 1442 1443 1443 1443
1440 1439 1438 1437 1436 1435 1434 1433 1432 1431 1430 1429 1428 1428 1427 1426 1426 1425 1424 1423 1421 1420 1418 1417 1416 1415 1415 1414 1414 1414 1414 1415 1416 1417 1417 1419 1422 1424 1423 1422 1422 1423 1424 1425 1426 1427 1428 1429 1429 1430 1430 1431 1431 1432 1433 1433 1434 1434 1434 1435 1435 1434 1434 1434 1434 1434 1434 1434 1435 1435 1436 1436 1436 1436 1436 1437 1437 1437 1437 1438 1439 1439 1440 1440 1441 1441 1441
1440 1439 1437 1437 1436 1434 1433 1432 1431 1430 1430 1429 1428 1427 1427 1426 1425 1425 1424 1423 1422 1421 1420 1419 1418 1416 1416 1415 1415 1415 1415 1416 1417 1417 1418 1419 1422 1424 1424 1424 1424 1424 1425 1426 1426 1427 1427 1428 1428 1428 1429 1430 1431 1432 1432 1433 1433 1433 1433 1434 1434 1433 1433 1433 1433 1433 1433 1433 1433 1433 1434 1434 1434 1434 1434 1434 1435 1435 1435 1436 1436 1437 1438 1438 1439 1439 1440
1440 1438 1437 1436 1435 1433 1432 1432 1431 1430 1429 1429 1428 1427 1427 1426 1425 1425 1424 1423 1423 1422 1421 1421 1420 1419 1418 1418 1418 1417 1417 1417 1418 1418 1419 1420 1422 1423 1424 1425 1425 1425 1426 1426 1427 1427 1427 1427 1428 1428 1429 1429 1430 1431 1431 1432 1432 1432 1432 1432 1432 1432 1431 1431 1431 1431 1431 1431 1431 1431 1431 1431 1431 1432 1432 1432 1432 1433 1433 1433 1434 1435 1436 1436 1437 1437 1438
1440 1438 1437 1436 1435 1434 1433 1432 1431 1430 1430 1429 1428 1427 1426 1426 1425 1425 1424 1424 1424 1423 1422 1422 1421 1421 1420 1420 1419 1419 1419 1419 1420 1420 1421 1421 1422 1423 1424 1424 1425 1425 1425 1426 1426 1426 1427 1427 1427 1428 1428 1429 1430 1430 1431 1431 1432 1432 1432 1431 1431 1430 1430 1430 1430 1430 1430 1430 1430 1430 1429 1429 1428 1428 1428 1429 1430 1430 1430 1431 1431 1432 1433 1434 1434 1435 1436
1440 1439 1438 1438 1436 1435 1435 1434 1433 1432 1431 1430 1428 1428 1427 1426 1425 1425 1424 1424 1424 1423 1422 1422 1422 1421 1421 1420 1420 1420 1420 1421 1421 1421 1421 1422 1422 1423 1423 1424 1424 1424 1425 1425 1426 1426 1426 1427 1427 1428 1428 1429 1429 1430 1430 1431 1431 1431 1431 1430 1430 1429 1429 1429 1429 1429 1429 1429 1429 1428 1428 1427 1426 1426 1426 1426 1427 1427 1427 1428 1428 1429 1430 1431 1431 1432 1434
1441 1441 1440 1439 1438 1437 1436 1435 1434 1433 1432 1430 1429 1428 1427 1426 1426 1425 1425 1424 1424 1423 1423 1422 1422 1422 1421 1421 1421 1421 1421 1421 1421 1422 1422 1422 1422 1422 1423 1423 1424 1424 1425 1425 1425 1426 1426 1426 1427 1427 1428 1428 1429 1429 1430 1430 1430 1430 1429 1429 1429 1428 1428 1427 1427 1427 1427 1427 1427 1426 1425 1425 1424 1424 1424 1424 1424 1425 1425 1425 1426 1426 1426 1427 1429 1430 1431
1442 1442 1441 1440 1439 1438 1437 1436 1435 1434 1432 1431 1430 1429 1428 1427 1426 1426 1425 1425 1424 1423 1423 1423 1422 1422 1422 1421 1421 1421 1421 1421 1421 1421 1422 1422 1422 1422 1423 1423 1424 1424 1424 1425 1425 1425 1426 1426 1426 1427 1427 1428 1428 1428 1428 1429 1429 1428 1428 1427 1427 1427 1426 1426 1426 1426 1425 1425 1425 1424 1423 1423 1422 1422 1422 1422 1422 1422 1422 1423 1423 1423 1423 1425 1427 1428 1429
1443 1442 1441 1440 1440 1439 1438 1437 1435 1434 1433 1432 1431 1430 1429 1428 1427 1426 1426 1425 1425 1424 1424 1423 1423 1422 1422 1421 1421 1421 1421 1421 1421 1421 1421 1421 1421 1422 1423 1423 1423 1423 1424 1424 1424 1425 1425 1426 1426 1426 1427 1427 1427 1427 1427 1427 1427 1427 1426 1426 1425 1425 1424 1424 1424 1424 1423 1423 1422 1422 1422 1421 1421 1420 1420 1420 1420 1420 1420 1421 1421 1421 1422 1423 1425 1426 1427
1442 1442 1441 1440 1440 1439 1438 1437 1436 1435 1434 1433 1432 1431 1430 1429 1428 1427 1426 1426 1425 1425 1424 1424 1423 1422 1422 1421 1421 1421 1421 1420 1420 1420 1420 1420 1421 1421 1422 1423 1423 1423 1423 1423 1424 1424 1425 1425 1425 1425 1425 1425 1425 1425 1425 1425 1425 1425 1424 1424 1424 1423 1423 1422 1422 1422 1421 1421 1421 1420 1420 1420 1419 1419 1419 1419 1419 1419 1419 1419 1419 1420 1420 1421 1422 1423 1424
1441 1441 1441 1440 1439 1439 1438 1437 1436 1435 1433 1432 1431 1430 1430 1429 1428 1428 1427 1426 1426 1425 1424 1424 1423 1422 1421 1421 1421 1420 1420 1420 1420 1420 1420 1420 1420 1420 1421 1421 1422 1422 1422 1422 1423 1423 1423 1423 1423 1423 1423 1423 1423 1423 1423 1423 1423 1422 1422 1422 1422 1421 1421 1421 1420 1420 1420 1419 1419 1419 1418 1418 1417 1417 1417 1417 1417 1417 1417 1418 1418 1418 1419 1419 1420 1421 1422
1441 1440 1440 1439 1438 1438 1437 1436 1436 1435 1433 1432 1431 1430 1429 1429 1428 1428 1427 1426 1425 1424 1424 1423 1422 1421 1421 1420 1420 1419 1419 1419 1419 1419 1419 1419 1419 1419 1419 1419 1420 1420 1421 1421 1421 1421 1421 1421 1421 1421 1421 1421 1421 1421 1421 1421 1421 1420 1420 1420 1420 1419 1419 1419 1418 1418 1418 1417 1417 1417 1416 1416 1416 1415 1415 1416 1416 1416 1416 1416 1416 1416 1416 1417 1418 1419 1419